Farmington, NM

2:55 AM MDT on July 23, 2017 (GMT -0600)
Four Corners Regional

Weather History for KFMN - December, 2013

Change the Weather History Date:

Tuesday, December 31, 2013

  Actual Average Record
Temperature  
Mean Temperature 29 °F -  
Max Temperature 46 °F 40 °F 55 °F (1996)
Min Temperature 12 °F 18 °F -8 °F (1990)
Degree Days  
Heating Degree Days 36    
Moisture  
Dew Point 13 °F    
Average Humidity 50    
Maximum Humidity 78    
Minimum Humidity 15    
Precipitation  
Precipitation 0.00 in - - ()
Sea Level Pressure  
Sea Level Pressure 30.34 in    
Wind  
Wind Speed 7 mph (SE)    
Max Wind Speed 10 mph    
Max Gust Speed -    
Visibility 10 miles    
Events      
Averages and records for this station are not official NWS values.
T = Trace of Precipitation, MM = Missing Value Source: NWS Daily Summary

Daily Weather History Graph

Daily Weather History Graph

Search for Another Location

Airport or City:

Trip Planner

Search our weather history database for the weather conditions in past years. The results will help you decide how hot, cold, wet, or windy it might be!

Date:

Astronomy

Dec. 31, 2013 Rise Set
Actual Time 7:25 AM MST 5:07 PM MST
Civil Twilight 6:56 AM MST 5:35 PM MST
Nautical Twilight 6:24 AM MST 6:08 PM MST
Astronomical Twilight 5:52 AM MST 6:39 PM MST
Moon 6:22 AM MST (12/31) 4:45 PM MST (12/31)
Length of Visible Light 10h 39m
Length of Day
9h 41m
Waning Crescent, 1% of the Moon is Illuminated
Dec 31
Waning Crescent
Jan 1
New
Jan 7
First Quarter
Jan 15
Full
Jan 23
Last Quarter

Hourly Weather History & Observations

Time (MST) Temp. Windchill Dew Point Humidity Pressure Visibility Wind Dir Wind Speed Gust Speed Precip Events Conditions
12:53 AM 19.0 °F 11.1 °F 10.0 °F 68% 30.42 in 10.0 mi East 5.8 mph - N/A   Clear
1:53 AM 19.9 °F 10.1 °F 10.0 °F 65% 30.41 in 10.0 mi East 8.1 mph - N/A   Clear
2:53 AM 16.0 °F 7.4 °F 8.1 °F 71% 30.43 in 10.0 mi East 5.8 mph - N/A   Clear
3:53 AM 16.0 °F 6.3 °F 9.0 °F 74% 30.43 in 10.0 mi East 6.9 mph - N/A   Clear
4:53 AM 15.1 °F 6.4 °F 8.1 °F 74% 30.43 in 10.0 mi East 5.8 mph - N/A   Clear
5:53 AM 17.1 °F 5.8 °F 10.9 °F 77% 30.43 in 10.0 mi East 9.2 mph - N/A   Clear
6:53 AM 18.0 °F 6.9 °F 12.0 °F 78% 30.44 in 10.0 mi East 9.2 mph - N/A   Clear
7:53 AM 19.0 °F 10.0 °F 12.0 °F 74% 30.46 in 10.0 mi East 6.9 mph - N/A   Clear
8:53 AM 21.9 °F 11.7 °F 14.0 °F 72% 30.46 in 10.0 mi ESE 9.2 mph - N/A   Clear
9:53 AM 27.0 °F 19.5 °F 15.1 °F 61% 30.46 in 10.0 mi ESE 6.9 mph - N/A   Clear
10:53 AM 33.1 °F 26.9 °F 17.1 °F 52% 30.42 in 10.0 mi ESE 6.9 mph - N/A   Clear
11:53 AM 39.0 °F 34.8 °F 15.1 °F 38% 30.35 in 10.0 mi SE 5.8 mph - N/A   Clear
12:53 PM 42.1 °F 40.2 °F 12.9 °F 31% 30.30 in 10.0 mi SW 3.5 mph - N/A   Clear
1:53 PM 46.0 °F 41.9 °F 14.0 °F 28% 30.25 in 10.0 mi SW 8.1 mph - N/A   Clear
2:53 PM 46.0 °F 41.0 °F 14.0 °F 28% 30.24 in 10.0 mi West 10.4 mph - N/A   Clear
3:53 PM 45.0 °F 39.7 °F 12.9 °F 27% 30.24 in 10.0 mi West 10.4 mph - N/A   Clear
4:53 PM 41.0 °F 35.2 °F 12.9 °F 32% 30.26 in 10.0 mi WSW 9.2 mph - N/A   Clear
5:53 PM 36.0 °F 29.6 °F 12.9 °F 39% 30.27 in 10.0 mi West 8.1 mph - N/A   Clear
6:53 PM 34.0 °F 29.8 °F 12.9 °F 42% 30.28 in 10.0 mi WSW 4.6 mph - N/A   Clear
7:53 PM 34.0 °F 26.6 °F 12.9 °F 42% 30.26 in 10.0 mi West 9.2 mph - N/A   Clear
8:53 PM 32.0 °F 28.7 °F 12.9 °F 45% 30.27 in 10.0 mi NW 3.5 mph - N/A   Overcast
9:53 PM 30.9 °F - 14.0 °F 50% 30.26 in 10.0 mi Calm Calm - N/A   Clear
10:53 PM 30.0 °F 23.2 °F 15.1 °F 54% 30.23 in 10.0 mi ENE 6.9 mph - N/A   Clear
11:53 PM 27.0 °F - 12.9 °F 56% 30.22 in 10.0 mi Calm Calm - N/A   Overcast